Weather reports worldwide

Advertisment
Nice, France (7690): temperature & dewpoint: 20.03.2019 08:00:00 - 26.03.2019 08:00:00 (CET)Nice, France (7690): temperature 5cm: 20.03.2019 08:00:00 - 26.03.2019 08:00:00 (CET)Nice, France (7690): temperature -20cm & temperature -100cm: 20.03.2019 08:00:00 - 26.03.2019 08:00:00 (CET)Nice, France (7690): wind speed & gusts: 20.03.2019 08:00:00 - 26.03.2019 08:00:00 (CET)Nice, France (7690): wind direction: 20.03.2019 08:00:00 - 26.03.2019 08:00:00 (CET)Nice, France (7690): reduced air pressure: 20.03.2019 08:00:00 - 26.03.2019 08:00:00 (CET)Nice, France (7690): visibility: 20.03.2019 08:00:00 - 26.03.2019 08:00:00 (CET)Nice, France (7690): sunshine duration: 20.03.2019 08:00:00 - 26.03.2019 08:00:00 (CET)Nice, France (7690): precipitation: 20.03.2019 08:00:00 - 26.03.2019 08:00:00 (CET)
Date & Time tt [°C] td [°C] tt 5cm [°C] tt -20cm [°C] tt -100cm [°C] ff [km/h] ff [kn] fx [km/h] fx [kn] dd ppp [hPa] vv [km] sd [min] rr [mm]
26.03.2019 08:00:00 12,0 -0,9 11,1 13,8 13,7 8 4 32 17 NNW 1016,4 30 0 0,0
26.03.2019 07:00:00 13,5 -2,9 12,0 13,8 13,7 6 4 36 20 N 1015,3 50 0 0,0
26.03.2019 06:00:00 14,9 -8,6 12,2 13,8 13,7 22 12 54 29 N 1013,4 20 0 0,0
26.03.2019 05:00:00 13,6 -3,7 12,0 13,8 13,6 24 13 56 30 NE 1013,3 20 0 0,0
26.03.2019 04:00:00 12,9 10,1 11,4 13,8 13,6 8 4 13 7 SW 1011,8 20 0 0,0
26.03.2019 03:00:00 13,0 10,2 11,6 13,8 13,6 9 5 16 8 W 1010,7 20 0 0,0
26.03.2019 02:00:00 13,0 9,6 12,0 13,8 13,6 2 1 12 7 W 1009,7 20 0 0,0
26.03.2019 01:00:00 13,0 9,6 11,9 13,8 13,6 8 4 24 13 NNW 1009,4 20 0 0,0
26.03.2019 00:00:00 13,0 9,8 11,8 13,8 13,8 15 8 42 23 NNW 1009,2 20 0 0,0
25.03.2019 23:00:00 14,1 10,7 13,2 13,7 13,6 23 12 40 22 E 1009,6 20 0 0,0
25.03.2019 22:00:00 13,8 11,1 13,0 13,7 13,6 20 11 27 15 E 1008,8 20 0 0,0
25.03.2019 21:00:00 13,7 11,0 12,8 13,7 13,6 18 10 28 15 E 1008,7 20 0 0,0
25.03.2019 20:00:00 13,7 11,4 13,0 13,7 13,7 21 11 28 15 E 1008,3 20 0 0,0
25.03.2019 19:00:00 13,8 11,5 13,1 13,7 13,6 19 10 24 13 E 1008,5 20 2 0,0
25.03.2019 18:00:00 14,3 12,0 14,6 13,7 13,6 19 10 31 17 E 1009,0 20 44 0,0
25.03.2019 17:00:00 14,7 11,8 16,2 13,7 13,6 22 12 31 17 E 1009,3 20 34 0,0
25.03.2019 16:00:00 15,3 11,9 19,8 13,7 13,6 22 12 33 18 E 1009,8 20 60 0,0
25.03.2019 15:00:00 15,4 11,2 21,2 13,7 13,6 23 13 35 19 E 1010,4 30 60 0,0
25.03.2019 14:00:00 16,2 11,8 21,9 13,7 13,5 22 12 26 14 E 1011,5 30 60 0,0
25.03.2019 13:00:00 15,6 11,0 22,1 13,7 13,5 19 10 23 12 E 1012,9 30 60 0,0
25.03.2019 12:00:00 15,8 10,3 22,0 13,7 13,5 11 6 18 10 ESE 1013,8 30 60 0,0
25.03.2019 11:00:00 15,3 10,7 20,3 13,7 13,5 15 8 29 16 E 1014,6 30 60 0,0
25.03.2019 10:00:00 15,3 10,5 19,9 13,7 13,5 24 13 29 16 E 1014,9 30 60 0,0
25.03.2019 09:00:00 14,5 6,6 14,7 13,7 13,6 6 4 16 9 NE 1015,0 30 60 0,0
25.03.2019 08:00:00 11,5 3,3 9,9 13,7 13,6 13 7 18 10 NNW 1015,6 30 60 0,0
25.03.2019 07:00:00 9,3 3,1 7,2 13,6 13,6 13 7 31 17 NW 1015,8 30 13 0,0
25.03.2019 06:00:00 9,5 3,9 6,6 13,6 13,6 21 11 29 16 ENE 1015,8 30 0 0,0
25.03.2019 05:00:00 9,5 3,2 7,1 13,6 13,5 9 5 11 6 NNW 1015,8 30 0 0,0
25.03.2019 04:00:00 9,8 3,7 6,4 13,6 13,6 7 4 11 6 N 1016,2 30 0 0,0
25.03.2019 03:00:00 10,5 4,0 6,0 13,6 13,6 4 2 9 5 N 1016,8 30 0 0,0
25.03.2019 02:00:00 10,9 4,1 5,9 13,6 13,6 4 2 5 3 N 1017,3 30 0 0,0
25.03.2019 01:00:00 10,5 6,8 7,4 13,5 13,5 0 0 6 4 N 1017,6 30 0 0,0
25.03.2019 00:00:00 10,9 6,8 8,7 13,5 13,5 0 0 8 4 N 1017,9 20 0 0,0
24.03.2019 23:00:00 12,4 7,3 9,7 13,5 13,6 4 2 13 7 NNE 1018,3 20 0 0,0
24.03.2019 22:00:00 12,7 8,8 10,5 13,5 13,6 9 5 13 7 NW 1018,7 20 0 0,0
24.03.2019 21:00:00 13,0 9,1 8,3 13,5 13,5 2 1 5 3 WSW 1019,2 20 0 0,0
24.03.2019 20:00:00 13,9 10,3 10,8 13,4 13,4 2 1 6 4 SE 1019,5 30 0 0,0
24.03.2019 19:00:00 14,3 10,3 12,3 13,4 13,5 3 2 7 4 SE 1019,8 30 26 0,0
24.03.2019 18:00:00 15,2 10,4 17,4 13,4 13,4 8 5 12 7 SSE 1019,8 30 60 0,0
24.03.2019 17:00:00 16,0 11,4 22,5 13,4 13,5 9 5 15 8 SSE 1020,2 30 60 0,0
24.03.2019 16:00:00 16,4 12,4 24,3 13,4 13,4 7 4 11 6 S 1020,6 30 60 0,0
24.03.2019 15:00:00 16,9 11,0 24,9 13,4 13,5 10 5 13 7 S 1021,0 30 60 0,0
24.03.2019 14:00:00 17,8 9,2 25,7 13,4 13,5 7 4 10 5 SSE 1021,4 30 60 0,0
24.03.2019 13:00:00 17,5 7,5 25,7 13,4 13,4 5 3 9 5 SE 1022,2 30 60 0,0
24.03.2019 12:00:00 16,8 9,9 24,3 13,4 13,5 6 3 9 5 SSE 1022,6 40 60 0,0
24.03.2019 11:00:00 16,5 10,8 23,9 13,4 13,4 7 4 10 5 ESE 1023,0 40 60 0,0
24.03.2019 10:00:00 17,5 1,9 21,2 13,4 13,4 5 3 16 9 ESE 1023,1 40 60 0,0
24.03.2019 09:00:00 16,8 -0,4 17,1 13,4 13,4 13 7 19 10 NNW 1022,9 40 60 0,0
24.03.2019 08:00:00 14,4 -1,3 13,2 13,4 13,4 14 7 21 12 NNW 1022,8 40 60 0,0
24.03.2019 07:00:00 12,8 -1,5 11,3 13,4 13,4 15 8 23 12 NNW 1022,6 40 11 0,0
24.03.2019 06:00:00 12,9 -1,5 11,4 13,4 13,4 19 10 27 14 NNW 1022,4 30 0 0,0
24.03.2019 05:00:00 13,3 -1,5 11,6 13,4 13,5 18 10 26 14 NNW 1022,4 30 0 0,0
24.03.2019 04:00:00 13,7 -1,5 12,5 13,3 13,4 16 9 27 15 NNW 1022,1 30 0 0,0
24.03.2019 03:00:00 13,9 -1,3 12,4 13,3 13,4 16 9 23 13 NNW 1022,2 30 0 0,0
24.03.2019 02:00:00 14,3 -1,0 12,0 13,3 13,3 16 8 28 15 NNW 1022,4 30 0 0,0
24.03.2019 01:00:00 14,0 -0,9 12,2 13,3 13,5 20 11 28 15 NNW 1022,6 30 0 0,0
24.03.2019 00:00:00 14,6 -0,7 11,3 13,3 13,4 11 6 20 11 NNW 1022,9 30 0 0,0
23.03.2019 23:00:00 14,8 0,2 12,3 13,2 13,4 13 7 21 11 NNW 1022,9 30 0 0,0
23.03.2019 22:00:00 14,5 1,7 12,7 13,2 13,5 16 9 25 14 NNW 1022,9 30 0 0,0
23.03.2019 21:00:00 14,8 2,7 12,9 13,2 13,3 19 11 26 14 NNW 1022,8 30 0 0,0
23.03.2019 20:00:00 15,1 2,9 10,3 13,2 13,4 9 5 10 6 NNW 1022,6 30 0 0,0
23.03.2019 19:00:00 14,8 6,1 11,1 13,2 13,4 2 1 6 4 WSW 1022,3 30 25 0,0
23.03.2019 18:00:00 16,0 9,9 18,5 13,2 13,4 3 2 10 6 SSW 1022,2 25 60 0,0
23.03.2019 17:00:00 17,2 8,3 23,9 13,2 13,4 8 4 10 5 S 1022,3 20 60 0,0
23.03.2019 16:00:00 18,3 2,2 26,6 13,2 13,3 5 3 8 5 S 1022,5 20 60 0,0
23.03.2019 15:00:00 18,2 4,4 25,8 13,2 13,4 5 3 10 5 SSE 1023,1 20 60 0,0
23.03.2019 14:00:00 18,1 2,0 25,6 13,2 13,4 5 3 9 5 E 1023,6 25 60 0,0
23.03.2019 13:00:00 17,5 5,4 25,7 13,2 13,4 6 3 10 6 E 1024,3 40 60 0,0
23.03.2019 12:00:00 16,4 8,9 24,0 13,2 13,3 5 3 10 6 ESE 1024,4 40 60 0,0
23.03.2019 11:00:00 16,5 8,5 22,5 13,2 13,3 9 5 15 8 E 1024,5 40 60 0,0
23.03.2019 10:00:00 17,3 1,7 20,4 13,2 13,3 11 6 23 12 ENE 1024,4 40 60 0,0
23.03.2019 09:00:00 15,9 -4,7 16,3 13,2 13,3 16 9 29 15 NNW 1024,1 40 60 0,0
23.03.2019 08:00:00 13,3 -4,4 12,3 13,2 13,3 19 10 34 18 NNW 1024,1 40 60 0,0
23.03.2019 07:00:00 11,7 -4,5 9,9 13,2 13,4 19 11 28 15 NNW 1024,4 40 9 0,0
23.03.2019 06:00:00 11,4 -3,9 9,7 13,2 13,4 20 11 29 16 NNW 1024,3 40 0 0,0
23.03.2019 05:00:00 11,9 -3,5 10,3 13,1 13,3 16 9 25 13 NNW 1024,2 40 0 0,0
23.03.2019 04:00:00 12,0 -3,0 11,0 13,1 13,4 21 11 33 18 NNW 1024,3 40 0 0,0
23.03.2019 03:00:00 12,2 -3,2 11,2 13,1 13,3 26 14 34 19 NNW 1024,7 40 0 0,0
23.03.2019 02:00:00 12,5 -3,4 10,4 13,1 13,3 19 11 28 15 NNW 1025,2 40 0 0,0
23.03.2019 01:00:00 12,4 -3,4 10,8 13,0 13,3 16 8 21 11 NNW 1025,5 40 0 0,0
23.03.2019 00:00:00 13,4 -3,4 11,4 13,0 13,4 15 8 22 12 NNW 1025,8 40 0 0,0
22.03.2019 23:00:00 13,9 -3,0 12,6 13,0 13,4 13 7 27 15 NNW 1025,9 40 0 0,0
22.03.2019 22:00:00 14,2 -2,7 12,7 13,0 13,4 19 10 29 15 NNW 1025,8 40 0 0,0
22.03.2019 21:00:00 14,3 -1,8 12,0 13,0 13,4 18 10 22 12 NNW 1025,8 40 0 0,0
22.03.2019 20:00:00 14,7 -0,2 11,0 13,0 13,3 11 6 14 8 NNW 1025,5 40 0 0,0
22.03.2019 19:00:00 14,8 7,8 12,5 13,0 13,3 9 5 14 7 W 1025,4 40 24 0,0
22.03.2019 18:00:00 16,8 8,5 18,9 13,0 13,3 6 3 12 7 SW 1025,5 40 60 0,0
22.03.2019 17:00:00 18,5 6,0 23,3 13,0 13,3 9 5 22 12 SW 1025,6 40 60 0,0
22.03.2019 16:00:00 17,5 9,1 23,4 13,0 13,3 18 10 24 13 SSW 1026,0 40 60 0,0
22.03.2019 15:00:00 17,2 8,9 23,3 13,0 13,3 14 8 18 10 SSW 1026,5 40 60 0,0
22.03.2019 14:00:00 17,4 9,6 24,1 13,0 13,3 7 4 14 7 S 1027,0 40 60 0,0
22.03.2019 13:00:00 17,0 5,9 23,9 13,0 13,3 11 6 16 8 W 1027,7 40 60 0,0
22.03.2019 12:00:00 16,2 5,8 23,6 13,0 13,3 9 5 13 7 S 1028,1 40 60 0,0
22.03.2019 11:00:00 15,4 7,7 20,7 13,0 13,3 8 4 19 10 E 1027,9 40 60 0,0
22.03.2019 10:00:00 15,0 7,8 18,7 13,0 13,3 9 5 25 13 ESE 1027,6 40 60 0,0
22.03.2019 09:00:00 14,6 -4,7 14,3 13,0 13,3 20 11 29 15 NNW 1027,3 40 60 0,0
22.03.2019 08:00:00 11,8 -5,7 10,7 13,0 13,3 23 12 35 19 NNW 1027,1 40 60 0,0
22.03.2019 07:00:00 10,3 -5,7 8,4 13,0 13,3 22 12 31 17 NNW 1026,8 40 8 0,0
22.03.2019 06:00:00 10,1 -5,5 8,5 13,0 13,2 16 9 24 13 NNW 1026,7 40 0 0,0
22.03.2019 05:00:00 10,5 -5,1 8,8 13,0 13,3 18 10 25 14 NNW 1026,6 40 0 0,0
22.03.2019 04:00:00 10,8 -4,5 9,1 13,0 13,3 16 9 23 13 NNW 1026,6 40 0 0,0
22.03.2019 03:00:00 11,1 -3,8 9,0 13,0 13,3 15 8 21 11 NNW 1026,6 40 0 0,0
22.03.2019 02:00:00 11,2 -2,6 9,2 13,0 13,3 16 9 22 12 NNW 1026,9 40 0 0,0
22.03.2019 01:00:00 11,3 -1,8 9,5 13,0 13,3 17 9 28 15 NNW 1027,1 40 0 0,0
22.03.2019 00:00:00 11,6 -1,2 9,4 12,9 13,3 16 9 29 16 NNW 1027,2 40 0 0,0
21.03.2019 23:00:00 11,0 0,4 9,0 12,9 13,3 16 8 22 12 NNW 1027,3 40 0 0,0
21.03.2019 22:00:00 11,7 1,0 10,0 12,9 13,3 11 6 20 11 NNW 1027,1 40 0 0,0
21.03.2019 21:00:00 12,5 1,8 10,7 12,9 13,3 16 8 27 15 NNW 1026,8 40 0 0,0
21.03.2019 20:00:00 13,3 3,4 10,5 12,9 13,4 9 5 12 6 WNW 1026,7 33 0 0,0
21.03.2019 19:00:00 15,0 1,8 11,8 12,9 13,2 6 3 9 5 WSW 1026,1 40 23 0,0
21.03.2019 18:00:00 16,4 1,7 17,5 12,9 13,3 7 4 11 6 W 1025,8 40 60 0,0
21.03.2019 17:00:00 16,9 2,1 22,7 12,9 13,3 4 2 10 5 SW 1026,0 40 60 0,0
21.03.2019 16:00:00 17,1 0,3 23,4 12,9 13,3 2 1 11 6 S 1026,1 40 60 0,0
21.03.2019 15:00:00 16,5 1,0 23,5 12,9 13,3 7 4 14 8 ESE 1026,5 40 60 0,0
21.03.2019 14:00:00 16,0 3,1 25,3 13,0 13,3 9 5 11 6 S 1026,9 40 60 0,0
21.03.2019 13:00:00 15,3 3,4 24,5 13,0 13,3 8 5 11 6 S 1027,9 32 60 0,0
21.03.2019 12:00:00 14,9 3,4 23,8 13,0 13,3 9 5 11 6 S 1028,3 40 60 0,0
21.03.2019 11:00:00 14,4 0,2 21,0 13,0 13,3 8 4 15 8 S 1028,5 40 60 0,0
21.03.2019 10:00:00 13,9 -2,1 15,0 13,0 13,3 9 5 22 12 NNW 1028,5 39 60 0,0
21.03.2019 09:00:00 10,4 -3,3 10,6 13,0 13,3 19 11 30 16 NW 1028,4 40 60 0,0
21.03.2019 08:00:00 8,2 -3,0 7,0 13,0 13,3 22 12 31 17 NNW 1028,0 40 60 0,0
21.03.2019 07:00:00 6,9 -2,8 5,5 13,0 13,3 16 9 26 14 NNW 1027,5 40 6 0,0
21.03.2019 06:00:00 7,0 -2,7 5,8 13,0 13,1 16 9 27 15 NNW 1027,0 40 0 0,0
21.03.2019 05:00:00 7,3 -2,5 6,3 13,0 13,2 20 11 29 16 NNW 1026,9 40 0 0,0
21.03.2019 04:00:00 7,7 -2,4 6,8 13,0 13,3 23 12 30 16 NNW 1026,9 40 0 0,0
21.03.2019 03:00:00 8,2 -1,9 7,1 13,0 13,2 18 10 29 16 NNW 1027,4 40 0 0,0
21.03.2019 02:00:00 8,6 -2,1 7,7 13,0 13,4 23 12 31 17 NNW 1027,9 40 0 0,0
21.03.2019 01:00:00 9,0 -2,0 7,4 13,0 13,3 22 12 28 15 NNW 1028,0 40 0 0,0
21.03.2019 00:00:00 9,2 -1,5 7,4 13,0 13,2 13 7 19 10 NNW 1028,5 40 0 0,0
20.03.2019 23:00:00 9,5 -1,0 7,7 13,0 13,4 11 6 20 11 NNW 1028,5 40 0 0,0
20.03.2019 22:00:00 9,8 -0,1 8,2 13,0 13,3 11 6 22 12 NNW 1028,4 40 0 0,0
20.03.2019 21:00:00 11,8 0,2 9,7 13,0 13,2 14 8 21 11 NNW 1027,8 40 0 0,0
20.03.2019 20:00:00 11,8 2,5 8,8 13,0 13,3 12 6 18 10 WNW 1027,6 40 0 0,0
20.03.2019 19:00:00 13,9 3,1 11,7 13,0 13,3 7 4 20 11 SE 1027,2 40 21 0,0
20.03.2019 18:00:00 14,4 2,9 15,5 13,0 13,3 12 7 24 13 ESE 1026,9 40 60 0,0
20.03.2019 17:00:00 15,0 3,8 18,1 13,0 13,3 15 8 35 19 ESE 1026,3 40 60 0,0
20.03.2019 16:00:00 15,0 2,2 18,7 13,1 13,3 21 11 40 22 ESE 1026,2 40 60 0,0
20.03.2019 15:00:00 15,1 2,9 18,9 13,0 13,2 27 15 50 27 ESE 1026,2 40 60 0,0
20.03.2019 14:00:00 15,3 3,4 19,0 13,1 13,3 29 16 47 26 E 1026,5 40 60 0,0
20.03.2019 13:00:00 15,3 2,1 19,8 13,1 13,2 27 14 39 21 E 1026,9 40 60 0,0
20.03.2019 12:00:00 15,4 0,8 19,5 13,1 13,3 23 13 40 21 E 1027,5 40 60 0,0
20.03.2019 11:00:00 14,4 -0,9 19,3 13,1 13,3 16 9 23 13 ESE 1027,6 40 60 0,0
20.03.2019 10:00:00 13,2 -1,6 14,2 13,1 13,2 8 4 18 10 NNW 1027,5 40 60 0,0
20.03.2019 09:00:00 10,3 -1,4 10,3 13,1 13,3 16 9 27 14 NNW 1027,1 40 60 0,0
20.03.2019 08:00:00 8,0 -1,3 6,8 13,1 13,2 20 11 34 19 NNW 1026,6 40 60 0,0

tt = temperature
td = dewpoint
tt 5cm = temperature 5cm
tt -20cm = temperature -20cm
tt -100cm = temperature -100cm
ff = wind speed
fx = gusts
dd = wind direction
ppp = reduced air pressure
vv = visibility
sd = sunshine duration
rr = precipitation

Next stations